Watertown, SD

2:44 PM CDT on June 25, 2018 (GMT -0500)
Watertown Municipal

Weather History for KATY - December, 2014

Change the Weather History Date:

Wednesday, December 24, 2014

  Actual Average Record
Temperature  
Mean Temperature 26 °F 14 °F  
Max Temperature 29 °F 23 °F 44 °F (1963)
Min Temperature 23 °F 5 °F -28 °F (1983)
Degree Days  
Heating Degree Days 39 51  
Month to date heating degree days 941 1156  
Since 1 July heating degree days 3022 3096  
Cooling Degree Days 0 0  
Month to date cooling degree days 0 0  
Year to date cooling degree days 369 515  
Moisture  
Dew Point 23 °F    
Average Humidity 94    
Maximum Humidity 100    
Minimum Humidity 88    
Precipitation  
Precipitation 0.00 in 0.01 in 0.40 in (1973)
Month to date precipitation 0.34 0.41  
Year to date precipitation 16.13 21.96  
Snow  
Snow 0.00 in - - ()
Month to date snowfall 1.1  
Since 1 July snowfall 11.5  
Snow Depth 0.00 in    
Sea Level Pressure  
Sea Level Pressure 29.74 in    
Wind  
Wind Speed 11 mph (WSW)    
Max Wind Speed 21 mph    
Max Gust Speed 25 mph    
Visibility 4 miles    
Events Fog    
T = Trace of Precipitation, MM = Missing Value Source: NWS Daily Summary

Daily Weather History Graph

Daily Weather History Graph

Search for Another Location

Airport or City:

Astronomy

Dec. 24, 2014 Rise Set
Actual Time 8:04 AM CST 4:51 PM CST
Civil Twilight 7:31 AM CST 5:25 PM CST
Nautical Twilight 6:53 AM CST 6:02 PM CST
Astronomical Twilight 6:18 AM CST 6:38 PM CST
Moon 9:50 AM CST (12/24) 8:25 PM CST (12/24)
Length of Visible Light 9h 54m
Length of Day
8h 47m
Waxing Crescent, 10% of the Moon is Illuminated
Dec 24
Waxing Crescent
Dec 28
First Quarter
Jan 4
Full
Jan 13
Last Quarter
Jan 20
New

Hourly Weather History & Observations

Time (CST) Temp. Windchill Dew Point Humidity Pressure Visibility Wind Dir Wind Speed Gust Speed Precip Events Conditions
12:53 AM 28.9 °F 15.8 °F 26.1 °F 89% 30.01 in 10.0 mi NNW 20.7 mph - N/A   Overcast
1:53 AM 28.0 °F 15.3 °F 26.1 °F 92% 29.99 in 10.0 mi NNW 18.4 mph - N/A   Overcast
2:40 AM 28.0 °F 15.7 °F 26.1 °F 92% 29.93 in 7.0 mi NNW 17.3 mph - N/A   Overcast
2:53 AM 27.0 °F 14.7 °F 26.1 °F 96% 29.99 in 5.0 mi NNW 16.1 mph - N/A   Overcast
3:53 AM 27.0 °F 16.1 °F 26.1 °F 96% 29.96 in 7.0 mi NW 12.7 mph - N/A   Overcast
4:53 AM 27.0 °F 16.1 °F 25.0 °F 92% 29.94 in 10.0 mi NW 12.7 mph - N/A   Overcast
5:53 AM 26.1 °F 14.5 °F 24.1 °F 92% 29.93 in 10.0 mi NW 13.8 mph - N/A   Overcast
6:51 AM 26.6 °F 15.7 °F 24.8 °F 93% 29.85 in 10.0 mi NNW 12.7 mph - N/A   Overcast
6:53 AM 26.1 °F 15.6 °F 24.1 °F 92% 29.91 in 10.0 mi NNW 11.5 mph - N/A   Overcast
7:53 AM 25.0 °F 15.5 °F 23.0 °F 92% 29.91 in 10.0 mi WNW 9.2 mph - N/A   Overcast
8:01 AM 25.0 °F 14.8 °F 23.0 °F 92% 29.84 in 10.0 mi WNW 10.4 mph - N/A   Overcast
8:42 AM 24.1 °F 13.7 °F 23.0 °F 96% 29.84 in 1.5 mi WNW 10.4 mph - N/A   Overcast
8:50 AM 24.8 °F 15.3 °F 23.0 °F 93% 29.84 in 1.0 mi WNW 9.2 mph - N/A   Overcast
8:53 AM 24.1 °F 13.7 °F 23.0 °F 96% 29.91 in 1.0 mi WNW 10.4 mph - N/A   Overcast
9:11 AM 24.1 °F 15.2 °F 21.9 °F 91% 29.82 in 0.8 mi NW 8.1 mph - N/A   Overcast
9:20 AM 24.1 °F 15.2 °F 23.0 °F 96% 29.82 in 1.0 mi NW 8.1 mph - N/A   Overcast
9:32 AM 24.1 °F 17.0 °F 23.0 °F 96% 29.80 in 0.8 mi WNW 5.8 mph - N/A   Overcast
9:53 AM 24.1 °F 15.2 °F 21.9 °F 91% 29.87 in 0.5 mi West 8.1 mph - N/A Fog Light Freezing Fog
10:03 AM 23.0 °F 13.9 °F 21.9 °F 96% 29.81 in 1.5 mi West 8.1 mph - N/A   Overcast
10:13 AM 24.1 °F 16.0 °F 21.9 °F 91% 29.81 in 0.8 mi WNW 6.9 mph - N/A   Overcast
10:24 AM 24.1 °F 19.7 °F 23.0 °F 96% 29.80 in 1.2 mi WNW 3.5 mph - N/A   Overcast
10:49 AM 24.8 °F 15.3 °F 21.2 °F 86% 29.79 in 0.8 mi WSW 9.2 mph - N/A   Overcast
10:53 AM 24.1 °F 16.0 °F 21.9 °F 91% 29.85 in 1.0 mi West 6.9 mph - N/A   Overcast
11:07 AM 24.1 °F 14.4 °F 23.0 °F 96% 29.77 in 0.8 mi West 9.2 mph - N/A   Overcast
11:18 AM 24.1 °F 17.0 °F 21.9 °F 91% 29.76 in 1.2 mi West 5.8 mph - N/A   Overcast
11:28 AM 24.1 °F 13.7 °F 21.9 °F 91% 29.76 in 0.5 mi West 10.4 mph - N/A Fog Light Freezing Fog
11:53 AM 24.1 °F 15.2 °F 23.0 °F 96% 29.81 in 0.5 mi WSW 8.1 mph - N/A Fog Light Freezing Fog
12:01 PM 24.1 °F 14.4 °F 23.0 °F 96% 29.74 in 0.2 mi West 9.2 mph - N/A Fog Light Freezing Fog
12:13 PM 24.1 °F 15.2 °F 23.0 °F 96% 29.73 in 0.5 mi WSW 8.1 mph - N/A Fog Light Freezing Fog
12:53 PM 25.0 °F 16.3 °F 24.1 °F 96% 29.76 in 0.5 mi SSW 8.1 mph - N/A Fog Light Freezing Fog
1:24 PM 25.0 °F 15.5 °F 23.0 °F 92% 29.68 in 1.0 mi WSW 9.2 mph - N/A   Overcast
1:32 PM 25.0 °F 15.5 °F 23.0 °F 92% 29.67 in 2.0 mi WSW 9.2 mph - N/A   Overcast
1:49 PM 24.8 °F 16.1 °F 23.0 °F 93% 29.66 in 4.0 mi WSW 8.1 mph - N/A   Overcast
1:53 PM 25.0 °F 15.5 °F 23.0 °F 92% 29.73 in 2.0 mi SW 9.2 mph - N/A   Overcast
2:00 PM 25.0 °F 14.8 °F 23.0 °F 92% 29.66 in 1.5 mi WSW 10.4 mph - N/A   Overcast
2:13 PM 25.0 °F 14.8 °F 23.0 °F 92% 29.65 in 1.2 mi SW 10.4 mph - N/A   Overcast
2:17 PM 25.0 °F 16.3 °F 23.0 °F 92% 29.65 in 2.5 mi WSW 8.1 mph - N/A   Overcast
2:25 PM 25.0 °F 15.5 °F 24.1 °F 96% 29.65 in 3.0 mi SW 9.2 mph - N/A   Overcast
2:27 PM 25.0 °F 15.5 °F 24.1 °F 96% 29.65 in 1.8 mi SW 9.2 mph - N/A   Overcast
2:38 PM 25.0 °F 17.1 °F 24.1 °F 96% 29.64 in 1.0 mi WSW 6.9 mph - N/A   Overcast
2:48 PM 24.8 °F 16.1 °F 23.0 °F 93% 29.63 in 2.0 mi SW 8.1 mph - N/A   Overcast
2:53 PM 25.0 °F 15.5 °F 23.0 °F 92% 29.70 in 1.5 mi SW 9.2 mph - N/A   Overcast
3:00 PM 25.0 °F 14.8 °F 24.1 °F 96% 29.62 in 1.0 mi SW 10.4 mph - N/A   Overcast
3:13 PM 25.0 °F 17.1 °F 24.1 °F 96% 29.63 in 0.5 mi SW 6.9 mph - N/A Fog Light Freezing Fog
3:23 PM 25.0 °F 14.8 °F 23.0 °F 92% 29.62 in 1.5 mi SW 10.4 mph - N/A   Overcast
3:25 PM 25.0 °F 15.5 °F 23.0 °F 92% 29.62 in 3.0 mi SW 9.2 mph - N/A   Overcast
3:53 PM 25.0 °F 15.5 °F 23.0 °F 92% 29.68 in 4.0 mi South 9.2 mph - N/A   Overcast
4:12 PM 25.0 °F 14.2 °F 23.0 °F 92% 29.60 in 2.5 mi SSW 11.5 mph - N/A   Overcast
4:22 PM 25.0 °F 15.5 °F 23.0 °F 92% 29.61 in 5.0 mi SW 9.2 mph - N/A   Overcast
4:53 PM 25.0 °F 15.5 °F 24.1 °F 96% 29.66 in 4.0 mi SSW 9.2 mph - N/A   Overcast
5:53 PM 25.0 °F 13.6 °F 23.0 °F 92% 29.63 in 7.0 mi SSW 12.7 mph - N/A   Overcast
6:53 PM 25.0 °F 15.5 °F 23.0 °F 92% 29.62 in 6.0 mi South 9.2 mph - N/A   Overcast
7:53 PM 25.0 °F 15.5 °F 23.0 °F 92% 29.61 in 7.0 mi South 9.2 mph - N/A   Overcast
8:53 PM 24.1 °F 14.4 °F 21.9 °F 91% 29.59 in 7.0 mi South 9.2 mph - N/A   Mostly Cloudy
9:18 PM 25.0 °F 15.5 °F 23.0 °F 92% 29.51 in 9.0 mi South 9.2 mph - N/A   Mostly Cloudy
9:40 PM 24.1 °F 15.2 °F 21.9 °F 91% 29.50 in 10.0 mi South 8.1 mph - N/A   Mostly Cloudy
9:53 PM 25.0 °F 15.5 °F 23.0 °F 92% 29.56 in 10.0 mi South 9.2 mph - N/A   Mostly Cloudy
10:53 PM 25.0 °F 16.3 °F 23.0 °F 92% 29.55 in 10.0 mi South 8.1 mph - N/A   Overcast
11:53 PM 26.1 °F 17.6 °F 23.0 °F 88% 29.57 in 10.0 mi SSW 8.1 mph - N/A   Scattered Clouds